[[{"header":{"parameterUnit":"m.s-1","parameterCategory":1,"la1":30.2991,"la2":30.254,"lo1":-89.0895,"lo2":-89.0444,"dy":0.0017,"dx":0.0017,"nx":28,"ny":28,"refTime":"2023-08-19T21:00:00:Z","depth":0,"parameterNumber":2,"parameterNumberName":"U-component_of_WINDS"},"data":[0,0,0,0,0,0,0,0,0,0,0,0,0,0,0,0,0,0,0,0,0,0,0,0,0,0,0,0,0,0,0,0,0,0,0,0,0,0,0,0,0,0,0,0,0,0,0,0,0,0,0,0,0,0,0,0,0,0,3.0698,3.0698,0,3.0696,3.0696,3.0696,3.066,3.0659,3.0659,3.0658,3.0657,3.0658,3.0658,0,0,0,0,0,0,0,0,0,0,0,0,0,3.0673,3.0674,3.0698,3.0698,3.0698,3.0696,3.0696,3.0696,3.0661,3.0659,3.0658,3.0657,3.0657,3.0657,3.0658,0,0,0,0,0,0,0,0,0,0,0,0,0,3.0679,3.0674,3.0698,3.068,3.0678,3.0696,3.0696,3.0696,3.0661,3.0659,3.0658,3.0657,3.0656,3.0657,3.0659,3.0694,0,0,3.0662,3.0663,0,0,0,0,0,0,0,0,3.0679,3.068,3.0682,3.0681,3.0679,3.0677,3.0687,3.0695,3.0661,3.0667,3.0658,3.0656,3.0665,3.0665,3.0668,3.0694,3.0694,3.0663,3.0663,3.0664,3.0664,0,0,0,0,0,0,0,3.0679,3.068,3.0697,3.0683,3.0681,3.0673,3.0672,3.0688,3.0674,3.0667,3.0664,3.0664,3.0664,3.0667,3.0668,3.0694,3.0662,3.0664,3.0664,3.0665,3.0751,3.0753,0,0,0,0,0,0,3.068,3.068,3.0697,3.0697,3.0676,3.0674,3.0674,3.0679,3.0673,3.0671,3.0666,3.0663,3.0665,3.0666,3.0667,3.071,3.0664,3.0665,3.0666,3.075,3.0752,3.0753,0,0,0,0,0,0,3.068,3.0682,3.0697,3.0688,3.0689,3.0676,3.0683,3.068,3.0683,3.0673,3.067,3.0671,3.0664,3.0666,3.0688,3.0709,3.0665,3.0667,3.0748,3.075,3.0752,3.0793,0,0,0,0,0,0,3.0679,3.0682,3.0694,3.0688,3.069,3.0717,3.0684,3.0681,3.0685,3.0681,3.0677,3.0675,3.0663,3.0686,3.0689,3.071,3.0668,3.0746,3.0749,3.0752,3.079,3.0797,3.0803,0,0,0,0,0,3.0679,3.0705,3.0695,3.0697,3.0704,3.0718,3.0719,3.0704,3.0687,3.07,3.0694,3.0675,3.0707,3.0689,3.0692,3.0713,3.0744,3.0748,3.0751,3.0787,3.0796,3.0802,0,0,0,0,0,0,3.0714,3.0704,3.0693,3.0718,3.0719,3.0712,3.0727,3.0713,3.0719,3.0715,3.0698,3.0697,3.0723,3.072,3.0701,3.0749,3.0723,3.0727,3.0749,3.0757,3.0763,3.0763,3.0669,0,0,0,0,0,3.0725,3.0736,3.0727,3.0751,3.0752,3.074,3.0745,3.0734,3.0735,3.0735,3.073,3.0732,3.0742,3.0749,3.0758,3.079,3.079,3.0807,3.0813,3.0818,3.0822,3.0841,3.0849,3.0765,3.0765,3.0765,0,0,3.0747,3.0743,3.0751,3.0758,3.0757,3.077,3.074,3.0755,3.0765,3.0737,3.0758,3.0755,3.0756,3.0784,3.0796,3.0783,3.0845,3.0823,3.0827,3.0828,3.0845,3.0853,3.086,3.0767,3.0767,3.0766,0,0,3.0794,3.0792,3.0812,3.0813,3.0813,3.0805,3.0811,3.0806,3.0803,3.0825,3.0805,3.0817,3.0835,3.0837,3.084,3.0893,3.0877,3.0896,3.0929,3.0948,3.0954,3.096,3.098,3.0987,3.09,3.09,3.09,0,3.0821,3.0839,3.0824,3.0841,3.0845,3.0822,3.0844,3.0845,3.0848,3.0853,3.0838,3.0862,3.086,3.089,3.0903,3.0906,3.0913,3.0896,3.0954,3.096,3.0965,3.0984,3.0991,3.0903,3.0902,3.0902,3.0902,0,3.0874,3.0888,3.0904,3.0909,3.0915,3.0934,3.0923,3.0932,3.0922,3.0916,3.094,3.0938,3.0947,3.0953,3.0943,3.0982,3.0974,3.0957,3.0931,3.0976,3.0993,3.1,3.0906,3.0905,3.0905,3.0904,0,0,3.0941,3.0939,3.0945,3.0948,3.0949,3.0959,3.0979,3.0988,3.0996,3.1,3.1017,3.1034,3.102,3.1024,3.1014,3.103,3.1074,3.1011,3.1011,3.1024,3.1119,3.1132,3.114,3.1064,3.1065,3.1066,3.112,0,3.0987,3.1019,3.1008,3.1041,3.1054,3.1034,3.1051,3.1054,3.1051,3.1062,3.1059,3.1072,3.105,3.1053,3.1069,3.1065,3.1093,3.1061,3.108,3.1081,3.108,3.1149,3.1162,3.1212,3.1126,3.1127,3.1128,0,3.1045,3.1052,3.1087,3.1088,3.1093,3.1108,3.1117,3.1129,3.1132,3.1129,3.1135,3.1123,3.1143,3.1118,3.1147,3.1126,3.1133,3.1133,3.1135,3.1136,3.1107,3.1153,3.1228,3.1236,3.1138,3.1138,3.1137,0,3.1091,3.111,3.1134,3.1137,3.1138,3.115,3.1151,3.1153,3.1161,3.1169,3.1174,3.1185,3.1191,3.1201,3.1192,3.1174,3.1223,3.1196,3.1222,3.1222,3.1232,3.1232,3.131,3.1237,3.1237,3.1237,3.1237,0,3.1144,3.1166,3.1155,3.117,3.1195,3.1183,3.1209,3.1208,3.1211,3.1226,3.121,3.1224,3.1212,3.1226,3.122,3.1246,3.1249,3.1247,3.1245,3.1249,3.1249,3.1253,3.125,3.1239,3.1239,3.1238,3.1238,0,3.12,3.1193,3.1218,3.1218,3.1218,3.1237,3.1237,3.1252,3.1248,3.1268,3.1272,3.1266,3.1283,3.1275,3.1292,3.1288,3.1322,3.1315,3.1321,3.1319,3.1345,3.1343,3.1429,3.144,3.136,3.1361,3.1361,0,3.1234,3.1251,3.1253,3.1262,3.1265,3.1279,3.1287,3.1277,3.1286,3.1294,3.1308,3.1323,3.1334,3.1362,3.136,3.1374,3.1367,3.1397,3.1369,3.1373,3.1369,3.1368,3.137,3.1402,3.1403,3.1403,3.1404,0,3.1295,3.1292,3.1304,3.1316,3.1326,3.1335,3.1342,3.1351,3.1341,3.1353,3.137,3.1379,3.1397,3.1413,3.1426,3.1428,3.1415,3.1413,3.142,3.1423,3.1426,3.1426,3.1336,3.1411,3.141,3.141,3.1409,3.1409,3.1341,3.1357,3.1361,3.1376,3.1381,3.1389,3.1404,3.1403,3.1416,3.1431,3.1424,3.1444,3.1451,3.1466,3.1471,3.1487,3.1476,3.1485,3.1488,3.149,3.1494,3.1424,3.1489,3.1489,3.1489,3.1489,3.1489,0,3.1403,3.1406,3.142,3.1432,3.1444,3.1432,3.144,3.1451,3.1469,3.1476,3.1488,3.1509,3.1525,3.1526,3.1541,3.1554,3.1549,3.1559,3.1557,3.1559,3.1503,3.1496,3.1563,3.1563,3.1563,3.1563,3.1563,3.1563,3.1437,3.1462,3.146,3.1489,3.1492,3.1511,3.1517,3.1526,3.1531,3.1555,3.1569,3.1569,3.1574,3.159,3.1605,3.1605,3.1612,3.1624,3.1622,3.157,3.1562,3.1555,3.1549,3.1625,3.1625,3.1676,3.1677,3.1677]},{"header":{"parameterUnit":"m.s-1","parameterCategory":1,"la1":30.2991,"la2":30.254,"lo1":-89.0895,"lo2":-89.0444,"dy":0.0017,"dx":0.0017,"nx":28,"ny":28,"refTime":"2023-08-19T21:00:00:Z","depth":0,"parameterNumber":3,"parameterNumberName":"V-component_of_WINDS"},"data":[0,0,0,0,0,0,0,0,0,0,0,0,0,0,0,0,0,0,0,0,0,0,0,0,0,0,0,0,0,0,0,0,0,0,0,0,0,0,0,0,0,0,0,0,0,0,0,0,0,0,0,0,0,0,0,0,0,0,-0.4523,-0.4523,0,-0.4519,-0.4519,-0.4519,-0.4522,-0.4522,-0.4522,-0.4522,-0.4519,-0.4519,-0.4518,0,0,0,0,0,0,0,0,0,0,0,0,0,-0.4534,-0.4534,-0.4523,-0.4523,-0.4523,-0.4519,-0.4519,-0.4519,-0.4522,-0.4522,-0.4522,-0.4522,-0.4519,-0.4519,-0.4518,0,0,0,0,0,0,0,0,0,0,0,0,0,-0.453,-0.4534,-0.4523,-0.4524,-0.4524,-0.4519,-0.4519,-0.4519,-0.4522,-0.4522,-0.4522,-0.4522,-0.4519,-0.4519,-0.4518,-0.4513,0,0,-0.4518,-0.4517,0,0,0,0,0,0,0,0,-0.453,-0.453,-0.4524,-0.4524,-0.4524,-0.4521,-0.4522,-0.4517,-0.4522,-0.4523,-0.4522,-0.4522,-0.452,-0.4519,-0.4518,-0.4513,-0.4513,-0.4518,-0.4517,-0.4517,-0.4517,0,0,0,0,0,0,0,-0.4531,-0.453,-0.4522,-0.4524,-0.4524,-0.4525,-0.4525,-0.4521,-0.452,-0.4522,-0.4523,-0.4522,-0.452,-0.4518,-0.4518,-0.4513,-0.4518,-0.4517,-0.4517,-0.4517,-0.4506,-0.4506,0,0,0,0,0,0,-0.4531,-0.453,-0.4522,-0.4522,-0.4527,-0.4525,-0.4524,-0.4522,-0.452,-0.452,-0.4522,-0.4522,-0.4519,-0.4518,-0.4518,-0.4513,-0.4517,-0.4517,-0.4517,-0.4506,-0.4506,-0.4506,0,0,0,0,0,0,-0.4531,-0.453,-0.4522,-0.4526,-0.4525,-0.4524,-0.4522,-0.4522,-0.452,-0.452,-0.452,-0.4521,-0.4519,-0.4518,-0.4515,-0.4513,-0.4517,-0.4517,-0.4506,-0.4506,-0.4506,-0.4503,0,0,0,0,0,0,-0.4531,-0.453,-0.4527,-0.4526,-0.4525,-0.4518,-0.4522,-0.4521,-0.452,-0.452,-0.4519,-0.4519,-0.4519,-0.4515,-0.4515,-0.4513,-0.4516,-0.4507,-0.4506,-0.4506,-0.4503,-0.4503,-0.4502,0,0,0,0,0,-0.4532,-0.4526,-0.4527,-0.4526,-0.4521,-0.4518,-0.4517,-0.4518,-0.452,-0.4518,-0.4518,-0.4519,-0.4514,-0.4515,-0.4514,-0.4512,-0.4507,-0.4506,-0.4506,-0.4503,-0.4503,-0.4502,0,0,0,0,0,0,-0.4527,-0.4526,-0.4527,-0.4521,-0.452,-0.4518,-0.4515,-0.4517,-0.4515,-0.4515,-0.4516,-0.4516,-0.4513,-0.4512,-0.4514,-0.4509,-0.4511,-0.451,-0.4509,-0.4508,-0.4508,-0.4508,-0.4516,0,0,0,0,0,-0.4525,-0.4522,-0.4522,-0.4516,-0.4516,-0.4516,-0.4514,-0.4515,-0.4514,-0.4513,-0.4513,-0.4512,-0.4511,-0.4509,-0.4508,-0.4503,-0.4504,-0.4502,-0.4501,-0.4501,-0.4501,-0.45,-0.45,-0.4505,-0.4505,-0.4505,0,0,-0.4522,-0.4521,-0.4519,-0.4516,-0.4515,-0.4512,-0.4515,-0.4512,-0.4511,-0.4513,-0.451,-0.451,-0.4509,-0.4506,-0.4504,-0.4505,-0.45,-0.4501,-0.45,-0.45,-0.45,-0.4499,-0.4499,-0.4505,-0.4505,-0.4505,0,0,-0.4514,-0.4513,-0.4509,-0.4508,-0.4507,-0.4508,-0.4507,-0.4506,-0.4506,-0.4503,-0.4505,-0.4504,-0.4501,-0.4501,-0.45,-0.4496,-0.4497,-0.4495,-0.4493,-0.4492,-0.4492,-0.4491,-0.4491,-0.449,-0.4495,-0.4495,-0.4495,0,-0.451,-0.4506,-0.4507,-0.4504,-0.4504,-0.4506,-0.4503,-0.4502,-0.4501,-0.4501,-0.4502,-0.4499,-0.4499,-0.4496,-0.4495,-0.4495,-0.4495,-0.4495,-0.4492,-0.4491,-0.4491,-0.449,-0.449,-0.4495,-0.4495,-0.4495,-0.4495,0,-0.4501,-0.4499,-0.4496,-0.4495,-0.4494,-0.4491,-0.4493,-0.4492,-0.4493,-0.4494,-0.4492,-0.4492,-0.4491,-0.4491,-0.4492,-0.4489,-0.449,-0.4491,-0.4494,-0.449,-0.449,-0.449,-0.4494,-0.4494,-0.4494,-0.4495,0,0,-0.4489,-0.4491,-0.449,-0.449,-0.449,-0.4489,-0.4487,-0.4486,-0.4486,-0.4486,-0.4485,-0.4483,-0.4485,-0.4485,-0.4486,-0.4486,-0.4484,-0.4487,-0.4487,-0.4487,-0.4482,-0.4482,-0.4481,-0.4485,-0.4485,-0.4485,-0.4483,0,-0.4483,-0.4479,-0.4481,-0.4477,-0.4476,-0.448,-0.4478,-0.4479,-0.448,-0.448,-0.4481,-0.448,-0.4482,-0.4482,-0.4482,-0.4484,-0.4483,-0.4484,-0.4485,-0.4485,-0.4485,-0.4481,-0.4479,-0.4478,-0.4483,-0.4482,-0.4482,0,-0.4474,-0.4474,-0.447,-0.4472,-0.4472,-0.4471,-0.4471,-0.4471,-0.4472,-0.4473,-0.4474,-0.4476,-0.4475,-0.4478,-0.4478,-0.4479,-0.448,-0.4481,-0.4481,-0.4481,-0.4483,-0.4482,-0.4477,-0.4477,-0.4482,-0.4482,-0.4482,0,-0.4467,-0.4466,-0.4464,-0.4464,-0.4466,-0.4466,-0.4467,-0.4468,-0.4468,-0.4469,-0.447,-0.4471,-0.4471,-0.4473,-0.4475,-0.4477,-0.4476,-0.4478,-0.4478,-0.4478,-0.4477,-0.4477,-0.4473,-0.4477,-0.4477,-0.4477,-0.4477,0,-0.4459,-0.4457,-0.4461,-0.446,-0.4459,-0.4461,-0.446,-0.4462,-0.4463,-0.4463,-0.4467,-0.4467,-0.447,-0.4471,-0.4473,-0.4474,-0.4474,-0.4476,-0.4477,-0.4476,-0.4476,-0.4476,-0.4477,-0.4477,-0.4477,-0.4477,-0.4477,0,-0.4451,-0.4453,-0.4452,-0.4454,-0.4455,-0.4454,-0.4457,-0.4457,-0.4459,-0.4459,-0.4459,-0.4463,-0.4464,-0.4468,-0.447,-0.4471,-0.4472,-0.4473,-0.4471,-0.4472,-0.4472,-0.4472,-0.4468,-0.4468,-0.4471,-0.4471,-0.4471,0,-0.4445,-0.4444,-0.4447,-0.4448,-0.4449,-0.4449,-0.445,-0.4453,-0.4454,-0.4457,-0.4457,-0.4459,-0.446,-0.4463,-0.4466,-0.4468,-0.4469,-0.4468,-0.447,-0.447,-0.4471,-0.4471,-0.4471,-0.4468,-0.4468,-0.4468,-0.4467,0,-0.4437,-0.4439,-0.4439,-0.4441,-0.4442,-0.4444,-0.4445,-0.4446,-0.445,-0.4451,-0.4452,-0.4454,-0.4457,-0.4459,-0.4462,-0.4464,-0.4467,-0.4467,-0.4467,-0.4466,-0.4466,-0.4467,-0.4471,-0.4467,-0.4467,-0.4467,-0.4467,-0.4467,-0.4431,-0.443,-0.4433,-0.4434,-0.4436,-0.4438,-0.4439,-0.4442,-0.4443,-0.4446,-0.4448,-0.445,-0.4454,-0.4458,-0.446,-0.4462,-0.4463,-0.4463,-0.4463,-0.4464,-0.4464,-0.4466,-0.4463,-0.4463,-0.4463,-0.4463,-0.4463,0,-0.4423,-0.4425,-0.4426,-0.4429,-0.4431,-0.4434,-0.4436,-0.4437,-0.4439,-0.4442,-0.4444,-0.4447,-0.445,-0.4454,-0.4457,-0.4459,-0.446,-0.4459,-0.4459,-0.446,-0.4462,-0.4462,-0.4458,-0.4458,-0.4458,-0.4458,-0.4458,-0.4458,-0.4419,-0.4419,-0.4422,-0.4424,-0.4426,-0.4428,-0.443,-0.4432,-0.4435,-0.4438,-0.4441,-0.4443,-0.4447,-0.4451,-0.4454,-0.4456,-0.4457,-0.4456,-0.4458,-0.4459,-0.446,-0.446,-0.446,-0.4456,-0.4456,-0.4456,-0.4456,-0.4456]}]]